Location: Bella Coola
(52.3721°N, 126.7539°W)
Time: 17:36:01
(UTC-07:00)

ISS - Pass Details

Date: 01 June 2019
Orbit: 408 x 418 km, 51.6° (Epoch: 18 June)

Event Time Altitude Azimuth Distance (km) Brightness Sun altitude
Rises 22:44:25 0° 280° (W) 2,356 0.9 -7.7°
Reaches altitude 10° 22:46:57 10° 261° (W) 1,492 -0.6 -7.9°
Maximum altitude 22:49:18 18° 216° (SW) 1,098 -1.8 -8.1°
Drops below altitude 10° 22:51:40 10° 171° (S) 1,491 -1.5 -8.3°
Enters shadow 22:51:47 - 169° (S) 1,527 -1.5 -8.3°
